Time,TemperatureF,DewpointF,PressureIn,WindDirection,WindDirectionDegrees,WindSpeedMPH,WindSpeedGustMPH,Humidity,HourlyPrecipIn,Conditions,Clouds,dailyrainin,SoftwareType,DateUTC
2017-05-24 00:04:00,66.0,44.0,29.64,SSE,157,0.0,0.0,45,0.00,,,0.00,WUHU216WMR200,2017-05-24 04:04:00,
2017-05-24 00:09:00,66.0,44.0,29.64,SSE,157,0.0,0.0,45,0.00,,,0.00,WUHU216WMR200,2017-05-24 04:09:00,
2017-05-24 00:14:00,65.8,43.8,29.64,SSE,157,0.0,0.0,45,0.00,,,0.00,WUHU216WMR200,2017-05-24 04:14:00,
2017-05-24 00:19:00,65.8,44.4,29.64,SSE,157,0.0,0.0,46,0.00,,,0.00,WUHU216WMR200,2017-05-24 04:19:00,
2017-05-24 00:24:00,65.7,44.3,29.64,SSE,157,0.0,0.0,46,0.00,,,0.00,WUHU216WMR200,2017-05-24 04:24:00,
2017-05-24 00:29:00,65.5,44.1,29.64,SSE,157,0.0,0.0,46,0.00,,,0.00,WUHU216WMR200,2017-05-24 04:29:00,
2017-05-24 00:34:00,65.5,44.7,29.61,SSE,157,0.0,0.0,47,0.00,,,0.00,WUHU216WMR200,2017-05-24 04:34:00,
2017-05-24 00:39:00,64.9,44.2,29.61,SSE,157,0.0,0.0,47,0.00,,,0.00,WUHU216WMR200,2017-05-24 04:39:00,
2017-05-24 00:44:00,65.1,44.9,29.61,SSE,157,0.0,0.0,48,0.00,,,0.00,WUHU216WMR200,2017-05-24 04:44:00,
2017-05-24 00:49:00,65.1,44.9,29.64,SSE,157,0.0,0.0,48,0.00,,,0.00,WUHU216WMR200,2017-05-24 04:49:00,
2017-05-24 00:54:00,65.1,44.9,29.64,SSE,157,0.0,0.0,48,0.00,,,0.00,WUHU216WMR200,2017-05-24 04:54:00,
2017-05-24 00:59:00,65.1,45.5,29.64,SSE,157,0.0,0.0,49,0.00,,,0.00,WUHU216WMR200,2017-05-24 04:59:00,
2017-05-24 01:04:00,64.8,45.2,29.61,SSE,157,0.0,0.0,49,0.00,,,0.00,WUHU216WMR200,2017-05-24 05:04:00,
2017-05-24 01:09:00,64.6,45.6,29.61,SSE,157,0.0,0.0,50,0.00,,,0.00,WUHU216WMR200,2017-05-24 05:09:00,
2017-05-24 01:14:00,64.8,45.8,29.61,SSE,157,0.0,0.0,50,0.00,,,0.00,WUHU216WMR200,2017-05-24 05:14:00,
2017-05-24 01:19:00,64.6,46.1,29.61,SSE,157,0.0,0.0,51,0.00,,,0.00,WUHU216WMR200,2017-05-24 05:19:00,
2017-05-24 01:24:00,64.4,45.9,29.61,SSE,157,0.0,0.0,51,0.00,,,0.00,WUHU216WMR200,2017-05-24 05:24:00,
2017-05-24 01:29:00,64.4,46.4,29.61,SSE,157,0.0,0.0,52,0.00,,,0.00,WUHU216WMR200,2017-05-24 05:29:00,
2017-05-24 01:34:00,64.4,46.4,29.61,SSE,157,0.0,0.0,52,0.00,,,0.00,WUHU216WMR200,2017-05-24 05:34:00,
2017-05-24 01:39:00,64.4,47.0,29.61,SSE,157,0.0,0.0,53,0.00,,,0.00,WUHU216WMR200,2017-05-24 05:39:00,
2017-05-24 01:44:00,64.2,47.3,29.61,SSE,157,0.0,0.0,54,0.00,,,0.00,WUHU216WMR200,2017-05-24 05:44:00,
2017-05-24 01:49:00,64.2,47.3,29.61,SSE,157,0.0,0.0,54,0.00,,,0.00,WUHU216WMR200,2017-05-24 05:49:00,
2017-05-24 01:54:00,64.0,47.6,29.61,SSE,157,0.0,0.0,55,0.00,,,0.00,WUHU216WMR200,2017-05-24 05:54:00,
2017-05-24 01:59:00,64.0,47.6,29.61,SSE,157,0.0,0.0,55,0.00,,,0.00,WUHU216WMR200,2017-05-24 05:59:00,
2017-05-24 02:04:00,64.0,47.6,29.61,SSE,157,0.0,0.0,55,0.00,,,0.00,WUHU216WMR200,2017-05-24 06:04:00,
2017-05-24 02:09:00,63.9,48.0,29.61,SSE,157,0.0,0.0,56,0.00,,,0.00,WUHU216WMR200,2017-05-24 06:09:00,
2017-05-24 02:14:00,63.9,48.5,29.61,SSE,157,0.0,0.0,57,0.00,,,0.00,WUHU216WMR200,2017-05-24 06:14:00,
2017-05-24 02:19:00,63.9,48.5,29.61,SSE,157,0.0,0.0,57,0.00,,,0.00,WUHU216WMR200,2017-05-24 06:19:00,
2017-05-24 02:24:00,63.9,48.5,29.61,SSE,157,0.0,0.0,57,0.00,,,0.00,WUHU216WMR200,2017-05-24 06:24:00,
2017-05-24 02:29:00,63.9,48.5,29.61,SSE,157,0.0,0.0,57,0.00,,,0.00,WUHU216WMR200,2017-05-24 06:29:00,
2017-05-24 02:34:00,63.9,48.5,29.58,SSE,157,0.0,0.0,57,0.00,,,0.00,WUHU216WMR200,2017-05-24 06:34:00,
2017-05-24 02:39:00,63.9,49.0,29.58,SSE,157,0.0,0.0,58,0.00,,,0.00,WUHU216WMR200,2017-05-24 06:39:00,
2017-05-24 02:44:00,63.7,48.8,29.58,SSE,157,0.0,0.0,58,0.00,,,0.00,WUHU216WMR200,2017-05-24 06:44:00,
2017-05-24 02:49:00,63.7,48.8,29.61,SSE,157,0.0,0.0,58,0.00,,,0.00,WUHU216WMR200,2017-05-24 06:49:00,
2017-05-24 02:54:00,63.5,49.1,29.61,SSE,157,0.0,0.0,59,0.00,,,0.00,WUHU216WMR200,2017-05-24 06:54:00,
2017-05-24 02:59:00,63.7,49.2,29.61,SSE,157,0.0,0.0,59,0.00,,,0.00,WUHU216WMR200,2017-05-24 06:59:00,
2017-05-24 03:04:00,63.5,49.1,29.61,SSE,157,0.0,0.0,59,0.00,,,0.00,WUHU216WMR200,2017-05-24 07:04:00,
2017-05-24 03:09:00,63.5,49.1,29.61,SSE,157,0.0,0.0,59,0.00,,,0.00,WUHU216WMR200,2017-05-24 07:09:00,
2017-05-24 03:14:00,63.3,49.3,29.61,SSE,157,0.0,0.0,60,0.00,,,0.00,WUHU216WMR200,2017-05-24 07:14:00,
2017-05-24 03:19:00,63.3,49.3,29.61,SSE,157,0.0,0.0,60,0.00,,,0.00,WUHU216WMR200,2017-05-24 07:19:00,
2017-05-24 03:24:00,63.1,49.1,29.61,SSE,157,0.0,0.0,60,0.00,,,0.00,WUHU216WMR200,2017-05-24 07:24:00,
2017-05-24 03:29:00,63.0,49.0,29.61,SSE,157,0.0,0.0,60,0.00,,,0.00,WUHU216WMR200,2017-05-24 07:29:00,
2017-05-24 03:34:00,63.0,49.0,29.58,SSE,157,0.0,0.0,60,0.00,,,0.00,WUHU216WMR200,2017-05-24 07:34:00,
2017-05-24 03:39:00,63.0,49.0,29.58,SSE,157,0.0,0.0,60,0.00,,,0.00,WUHU216WMR200,2017-05-24 07:39:00,
2017-05-24 03:44:00,62.8,49.3,29.58,SSE,157,0.0,0.0,61,0.00,,,0.00,WUHU216WMR200,2017-05-24 07:44:00,
2017-05-24 03:49:00,62.8,49.3,29.58,SSE,157,0.0,0.0,61,0.00,,,0.00,WUHU216WMR200,2017-05-24 07:49:00,
2017-05-24 03:54:00,62.8,49.3,29.58,SSE,157,0.0,0.0,61,0.00,,,0.00,WUHU216WMR200,2017-05-24 07:54:00,
2017-05-24 03:59:00,62.8,49.3,29.58,SSE,157,0.0,0.0,61,0.00,,,0.00,WUHU216WMR200,2017-05-24 07:59:00,
2017-05-24 04:04:00,62.6,49.1,29.58,SSE,157,0.0,0.0,61,0.00,,,0.00,WUHU216WMR200,2017-05-24 08:04:00,
2017-05-24 04:09:00,62.4,49.4,29.58,SSE,157,0.0,0.0,62,0.00,,,0.00,WUHU216WMR200,2017-05-24 08:09:00,
2017-05-24 04:14:00,62.2,49.2,29.58,SSE,157,0.0,0.0,62,0.00,,,0.00,WUHU216WMR200,2017-05-24 08:14:00,
2017-05-24 04:19:00,62.2,49.2,29.58,SSE,157,0.0,0.0,62,0.00,,,0.00,WUHU216WMR200,2017-05-24 08:19:00,
2017-05-24 04:24:00,61.9,49.3,29.58,SSE,157,0.0,0.0,63,0.00,,,0.00,WUHU216WMR200,2017-05-24 08:24:00,
2017-05-24 04:29:00,61.9,49.3,29.58,SSE,157,0.0,0.0,63,0.00,,,0.00,WUHU216WMR200,2017-05-24 08:29:00,
2017-05-24 04:34:00,61.7,49.1,29.58,SSE,157,0.0,0.0,63,0.00,,,0.00,WUHU216WMR200,2017-05-24 08:34:00,
2017-05-24 04:39:00,61.5,48.9,29.58,SSE,157,0.0,0.0,63,0.00,,,0.00,WUHU216WMR200,2017-05-24 08:39:00,
2017-05-24 04:44:00,61.5,49.4,29.58,SSE,157,0.0,0.0,64,0.00,,,0.00,WUHU216WMR200,2017-05-24 08:44:00,
2017-05-24 04:49:00,61.3,49.2,29.55,SSE,157,0.0,0.0,64,0.00,,,0.00,WUHU216WMR200,2017-05-24 08:49:00,
2017-05-24 04:54:00,61.3,49.2,29.55,SSE,157,0.0,0.0,64,0.00,,,0.00,WUHU216WMR200,2017-05-24 08:54:00,
2017-05-24 04:59:00,61.3,49.6,29.55,SSE,157,0.0,0.0,65,0.00,,,0.00,WUHU216WMR200,2017-05-24 08:59:00,
2017-05-24 05:04:00,61.2,49.5,29.58,SSE,157,0.0,0.0,65,0.00,,,0.00,WUHU216WMR200,2017-05-24 09:04:00,
2017-05-24 05:09:00,61.3,50.0,29.58,SSE,157,0.0,0.0,66,0.00,,,0.00,WUHU216WMR200,2017-05-24 09:09:00,
2017-05-24 05:14:00,61.3,50.0,29.58,SSE,157,0.0,0.0,66,0.00,,,0.00,WUHU216WMR200,2017-05-24 09:14:00,
2017-05-24 05:19:00,61.3,50.0,29.58,SSE,157,0.0,0.0,66,0.00,,,0.00,WUHU216WMR200,2017-05-24 09:19:00,
2017-05-24 05:24:00,61.3,50.4,29.58,SSE,157,0.0,0.0,67,0.00,,,0.00,WUHU216WMR200,2017-05-24 09:24:00,
2017-05-24 05:29:00,61.2,50.3,29.58,SSE,157,0.0,0.0,67,0.00,,,0.00,WUHU216WMR200,2017-05-24 09:29:00,
2017-05-24 05:34:00,61.0,50.1,29.58,SSE,157,0.0,0.0,67,0.00,,,0.00,WUHU216WMR200,2017-05-24 09:34:00,
2017-05-24 05:39:00,61.0,50.5,29.58,SSE,157,0.0,0.0,68,0.00,,,0.00,WUHU216WMR200,2017-05-24 09:39:00,
2017-05-24 05:44:00,61.0,50.5,29.58,SSE,157,0.0,0.0,68,0.00,,,0.00,WUHU216WMR200,2017-05-24 09:44:00,
2017-05-24 05:49:00,61.0,50.5,29.58,SSE,157,0.0,0.0,68,0.00,,,0.00,WUHU216WMR200,2017-05-24 09:49:00,
2017-05-24 05:54:00,61.0,50.5,29.58,SSE,157,0.0,0.0,68,0.00,,,0.00,WUHU216WMR200,2017-05-24 09:54:00,
2017-05-24 05:59:00,60.8,50.7,29.58,SSE,157,0.0,0.0,69,0.00,,,0.00,WUHU216WMR200,2017-05-24 09:59:00,
2017-05-24 06:04:00,60.8,51.1,29.58,SSE,157,0.0,0.0,70,0.00,,,0.00,WUHU216WMR200,2017-05-24 10:04:00,
2017-05-24 06:09:00,60.8,51.1,29.58,SSE,157,0.0,0.0,70,0.00,,,0.00,WUHU216WMR200,2017-05-24 10:09:00,
2017-05-24 06:14:00,60.6,50.9,29.58,SSE,157,0.0,0.0,70,0.00,,,0.00,WUHU216WMR200,2017-05-24 10:14:00,
2017-05-24 06:19:00,60.6,50.9,29.58,SSE,157,0.0,0.0,70,0.00,,,0.00,WUHU216WMR200,2017-05-24 10:19:00,
2017-05-24 06:24:00,60.4,51.1,29.58,SSE,157,0.0,0.0,71,0.00,,,0.00,WUHU216WMR200,2017-05-24 10:24:00,
2017-05-24 06:29:00,60.3,51.0,29.58,SSE,157,0.0,0.0,71,0.00,,,0.00,WUHU216WMR200,2017-05-24 10:29:00,
2017-05-24 06:34:00,60.4,51.5,29.55,SSE,157,0.0,0.0,72,0.00,,,0.00,WUHU216WMR200,2017-05-24 10:34:00,
2017-05-24 06:39:00,60.4,51.5,29.55,SSE,157,0.0,0.0,72,0.00,,,0.00,WUHU216WMR200,2017-05-24 10:39:00,
2017-05-24 06:44:00,60.1,51.5,29.55,SSE,157,0.0,0.0,73,0.00,,,0.00,WUHU216WMR200,2017-05-24 10:44:00,
2017-05-24 06:49:00,60.3,51.7,29.58,SSE,157,0.0,0.0,73,0.00,,,0.00,WUHU216WMR200,2017-05-24 10:49:00,
2017-05-24 06:54:00,60.3,51.7,29.58,SSE,157,0.0,0.0,73,0.00,,,0.00,WUHU216WMR200,2017-05-24 10:54:00,
2017-05-24 06:59:00,60.4,51.8,29.58,SSE,157,0.0,0.0,73,0.00,,,0.00,WUHU216WMR200,2017-05-24 10:59:00,
2017-05-24 07:04:00,60.4,51.8,29.58,SSE,157,0.0,0.0,73,0.00,,,0.00,WUHU216WMR200,2017-05-24 11:04:00,
2017-05-24 07:09:00,60.4,51.8,29.58,SSE,157,0.0,0.0,73,0.00,,,0.00,WUHU216WMR200,2017-05-24 11:09:00,
2017-05-24 07:14:00,60.4,51.8,29.58,SSE,157,0.0,0.0,73,0.00,,,0.00,WUHU216WMR200,2017-05-24 11:14:00,
2017-05-24 07:19:00,60.4,51.8,29.58,SSE,157,0.0,0.0,73,0.00,,,0.00,WUHU216WMR200,2017-05-24 11:19:00,
2017-05-24 07:24:00,60.6,52.0,29.58,SSE,157,0.0,0.0,73,0.00,,,0.00,WUHU216WMR200,2017-05-24 11:24:00,
2017-05-24 07:29:00,60.6,52.0,29.58,SSE,157,0.0,0.0,73,0.00,,,0.00,WUHU216WMR200,2017-05-24 11:29:00,
2017-05-24 07:30:00,60.6,52.0,29.58,SSE,157,0.0,0.0,73,0.00,,,0.00,WUHU216WMR200,2017-05-24 11:30:00,
2017-05-24 07:35:00,60.4,51.8,29.58,SSE,157,0.0,0.0,73,0.00,,,0.00,WUHU216WMR200,2017-05-24 11:35:00,
2017-05-24 07:40:00,60.6,52.0,29.58,SSE,157,0.0,0.0,73,0.00,,,0.00,WUHU216WMR200,2017-05-24 11:40:00,
2017-05-24 07:45:00,60.6,52.0,29.58,SSE,157,0.0,0.0,73,0.00,,,0.00,WUHU216WMR200,2017-05-24 11:45:00,
2017-05-24 07:50:00,60.4,51.8,29.58,SSE,157,0.0,0.0,73,0.00,,,0.00,WUHU216WMR200,2017-05-24 11:50:00,
2017-05-24 07:55:00,60.4,51.8,29.58,SSE,157,0.0,0.0,73,0.00,,,0.00,WUHU216WMR200,2017-05-24 11:55:00,
2017-05-24 08:00:00,60.4,51.8,29.58,SSE,157,0.0,0.0,73,0.00,,,0.00,WUHU216WMR200,2017-05-24 12:00:00,
2017-05-24 08:05:00,60.4,51.8,29.58,SSE,157,0.0,0.0,73,0.00,,,0.00,WUHU216WMR200,2017-05-24 12:05:00,
2017-05-24 08:10:00,60.4,51.8,29.58,SSE,157,0.0,0.0,73,0.00,,,0.00,WUHU216WMR200,2017-05-24 12:10:00,
2017-05-24 08:15:00,60.6,52.4,29.58,SSE,157,0.0,0.0,74,0.00,,,0.00,WUHU216WMR200,2017-05-24 12:15:00,
2017-05-24 08:25:00,60.6,52.4,29.55,SSE,157,0.0,0.0,74,0.00,,,0.00,WUHU216WMR200,2017-05-24 12:25:00,
2017-05-24 08:30:00,60.4,52.2,29.55,SSE,157,0.0,0.0,74,0.00,,,0.00,WUHU216WMR200,2017-05-24 12:30:00,
2017-05-24 08:35:00,60.6,52.7,29.55,SSE,157,0.0,0.0,75,0.00,,,0.00,WUHU216WMR200,2017-05-24 12:35:00,
2017-05-24 08:40:00,60.6,52.7,29.55,SSE,157,0.0,0.0,75,0.00,,,0.00,WUHU216WMR200,2017-05-24 12:40:00,
2017-05-24 08:45:00,60.4,53.2,29.55,SSE,157,0.0,0.0,77,0.00,,,0.00,WUHU216WMR200,2017-05-24 12:45:00,
2017-05-24 08:50:00,60.6,53.4,29.55,SSE,157,0.0,0.0,77,0.00,,,0.00,WUHU216WMR200,2017-05-24 12:50:00,
2017-05-24 08:55:00,60.6,53.1,29.55,SSE,157,0.0,0.0,76,0.00,,,0.00,WUHU216WMR200,2017-05-24 12:55:00,
2017-05-24 09:00:00,61.0,53.1,29.55,SSE,157,0.0,0.0,75,0.00,,,0.00,WUHU216WMR200,2017-05-24 13:00:00,
2017-05-24 09:05:00,61.0,53.1,29.55,SSE,157,0.0,0.0,75,0.00,,,0.00,WUHU216WMR200,2017-05-24 13:05:00,
2017-05-24 09:10:00,61.3,53.8,29.55,SSE,157,0.0,0.0,76,0.00,,,0.00,WUHU216WMR200,2017-05-24 13:10:00,
2017-05-24 09:15:00,61.5,54.0,29.55,SSE,157,0.0,0.0,76,0.00,,,0.00,WUHU216WMR200,2017-05-24 13:15:00,
2017-05-24 09:20:00,61.3,53.4,29.55,SSE,157,0.0,0.0,75,0.00,,,0.00,WUHU216WMR200,2017-05-24 13:20:00,
2017-05-24 09:25:00,61.3,54.1,29.55,SSE,157,0.0,0.0,77,0.00,,,0.00,WUHU216WMR200,2017-05-24 13:25:00,
2017-05-24 09:30:00,61.5,54.3,29.55,SSE,157,0.0,0.0,77,0.00,,,0.00,WUHU216WMR200,2017-05-24 13:30:00,
2017-05-24 09:35:00,61.7,54.5,29.55,SSE,157,0.0,0.0,77,0.00,,,0.00,WUHU216WMR200,2017-05-24 13:35:00,
2017-05-24 09:40:00,62.1,54.5,29.55,SSE,157,0.0,0.0,76,0.00,,,0.00,WUHU216WMR200,2017-05-24 13:40:00,
2017-05-24 09:42:00,62.1,54.5,29.55,SSE,157,0.0,0.0,76,0.00,,,0.00,WUHU216WMR200,2017-05-24 13:42:00,
2017-05-24 09:47:00,62.2,54.3,29.55,SSE,157,0.0,0.0,75,0.00,,,0.00,WUHU216WMR200,2017-05-24 13:47:00,
2017-05-24 09:52:00,62.4,55.2,29.55,SSE,157,0.0,0.0,77,0.00,,,0.00,WUHU216WMR200,2017-05-24 13:52:00,
2017-05-24 09:57:00,62.6,55.0,29.55,SSE,157,0.0,0.0,76,0.00,,,0.00,WUHU216WMR200,2017-05-24 13:57:00,
2017-05-24 10:02:00,62.6,54.7,29.53,SSE,157,0.0,0.0,75,0.00,,,0.00,WUHU216WMR200,2017-05-24 14:02:00,
2017-05-24 10:07:00,63.0,55.4,29.53,SSE,157,0.0,0.0,76,0.00,,,0.00,WUHU216WMR200,2017-05-24 14:07:00,
2017-05-24 10:12:00,63.0,55.1,29.53,SSE,157,0.0,0.0,75,0.00,,,0.00,WUHU216WMR200,2017-05-24 14:12:00,
2017-05-24 10:17:00,63.0,54.7,29.55,SSE,157,0.0,0.0,74,0.00,,,0.00,WUHU216WMR200,2017-05-24 14:17:00,
2017-05-24 10:27:00,62.8,54.5,29.55,SSE,157,0.0,0.0,74,0.00,,,0.00,WUHU216WMR200,2017-05-24 14:27:00,
2017-05-24 10:32:00,63.0,54.7,29.53,SSE,157,0.0,0.0,74,0.00,,,0.00,WUHU216WMR200,2017-05-24 14:32:00,
2017-05-24 10:37:00,63.0,54.7,29.53,SSE,157,0.0,0.0,74,0.00,,,0.00,WUHU216WMR200,2017-05-24 14:37:00,
2017-05-24 10:42:00,62.8,54.5,29.53,SSE,157,0.0,0.0,74,0.00,,,0.00,WUHU216WMR200,2017-05-24 14:42:00,
2017-05-24 10:47:00,62.8,54.1,29.53,SSE,157,0.0,0.0,73,0.00,,,0.00,WUHU216WMR200,2017-05-24 14:47:00,
2017-05-24 10:52:00,62.8,54.5,29.53,SSE,157,0.0,0.0,74,0.00,,,0.00,WUHU216WMR200,2017-05-24 14:52:00,
2017-05-24 10:57:00,62.6,54.0,29.53,SSE,157,0.0,0.0,73,0.00,,,0.00,WUHU216WMR200,2017-05-24 14:57:00,
2017-05-24 11:02:00,62.8,54.1,29.55,SSE,157,0.0,0.0,73,0.00,,,0.00,WUHU216WMR200,2017-05-24 15:02:00,
2017-05-24 11:07:00,62.8,54.1,29.55,SSE,157,0.0,0.0,73,0.00,,,0.00,WUHU216WMR200,2017-05-24 15:07:00,
2017-05-24 11:12:00,62.8,54.1,29.55,SSE,157,0.0,0.0,73,0.00,,,0.00,WUHU216WMR200,2017-05-24 15:12:00,
2017-05-24 11:17:00,62.8,54.1,29.55,SSE,157,0.0,0.0,73,0.00,,,0.00,WUHU216WMR200,2017-05-24 15:17:00,
2017-05-24 11:22:00,63.0,54.3,29.55,SSE,157,0.0,0.0,73,0.00,,,0.00,WUHU216WMR200,2017-05-24 15:22:00,
2017-05-24 11:27:00,62.8,53.8,29.55,SSE,157,0.0,0.0,72,0.00,,,0.00,WUHU216WMR200,2017-05-24 15:27:00,
2017-05-24 11:32:00,63.0,54.3,29.55,SSE,157,0.0,0.0,73,0.00,,,0.00,WUHU216WMR200,2017-05-24 15:32:00,
2017-05-24 11:37:00,62.8,53.8,29.55,SSE,157,0.0,0.0,72,0.00,,,0.00,WUHU216WMR200,2017-05-24 15:37:00,
2017-05-24 11:42:00,63.0,54.3,29.55,SSE,157,0.0,0.0,73,0.00,,,0.00,WUHU216WMR200,2017-05-24 15:42:00,
2017-05-24 11:47:00,62.8,53.8,29.55,SSE,157,0.0,0.0,72,0.00,,,0.00,WUHU216WMR200,2017-05-24 15:47:00,
2017-05-24 11:52:00,63.0,54.3,29.55,SSE,157,0.0,0.0,73,0.00,,,0.00,WUHU216WMR200,2017-05-24 15:52:00,
2017-05-24 11:57:00,63.0,54.0,29.55,SSE,157,0.0,0.0,72,0.00,,,0.00,WUHU216WMR200,2017-05-24 15:57:00,
2017-05-24 12:02:00,63.1,54.1,29.55,SSE,157,0.0,0.0,72,0.00,,,0.00,WUHU216WMR200,2017-05-24 16:02:00,
2017-05-24 12:07:00,63.3,54.3,29.55,SSE,157,0.0,0.0,72,0.00,,,0.00,WUHU216WMR200,2017-05-24 16:07:00,
2017-05-24 12:12:00,63.3,54.3,29.55,SSE,157,0.0,0.0,72,0.00,,,0.00,WUHU216WMR200,2017-05-24 16:12:00,
2017-05-24 12:17:00,63.3,54.6,29.55,SSE,157,0.0,0.0,73,0.00,,,0.00,WUHU216WMR200,2017-05-24 16:17:00,
2017-05-24 12:22:00,63.3,54.3,29.55,SSE,157,0.0,0.0,72,0.00,,,0.00,WUHU216WMR200,2017-05-24 16:22:00,
2017-05-24 12:27:00,63.3,54.3,29.55,SSE,157,0.0,0.0,72,0.00,,,0.00,WUHU216WMR200,2017-05-24 16:27:00,
2017-05-24 12:32:00,63.3,54.3,29.55,SSE,157,0.0,0.0,72,0.00,,,0.00,WUHU216WMR200,2017-05-24 16:32:00,
2017-05-24 12:37:00,63.5,54.4,29.55,SSE,157,0.0,0.0,72,0.00,,,0.00,WUHU216WMR200,2017-05-24 16:37:00,
2017-05-24 12:42:00,63.5,54.4,29.55,SSE,157,0.0,0.0,72,0.00,,,0.00,WUHU216WMR200,2017-05-24 16:42:00,
2017-05-24 12:47:00,63.5,54.4,29.53,SSE,157,0.0,0.0,72,0.00,,,0.00,WUHU216WMR200,2017-05-24 16:47:00,
2017-05-24 12:52:00,63.5,54.1,29.53,SSE,157,0.0,0.0,71,0.00,,,0.00,WUHU216WMR200,2017-05-24 16:52:00,
2017-05-24 12:57:00,63.3,53.9,29.53,SSE,157,0.0,0.0,71,0.00,,,0.00,WUHU216WMR200,2017-05-24 16:57:00,
2017-05-24 13:02:00,63.3,54.3,29.50,SSE,157,0.0,0.0,72,0.00,,,0.00,WUHU216WMR200,2017-05-24 17:02:00,
2017-05-24 13:07:00,63.5,54.4,29.50,SSE,157,0.0,0.0,72,0.00,,,0.00,WUHU216WMR200,2017-05-24 17:07:00,
2017-05-24 13:12:00,63.5,54.4,29.50,SSE,157,0.0,0.0,72,0.00,,,0.00,WUHU216WMR200,2017-05-24 17:12:00,
2017-05-24 13:17:00,63.5,54.4,29.50,SSE,157,0.0,0.0,72,0.00,,,0.00,WUHU216WMR200,2017-05-24 17:17:00,
2017-05-24 13:22:00,63.5,54.4,29.50,SSE,157,0.0,0.0,72,0.00,,,0.00,WUHU216WMR200,2017-05-24 17:22:00,
2017-05-24 13:27:00,63.7,54.6,29.50,SSE,157,0.0,0.0,72,0.00,,,0.00,WUHU216WMR200,2017-05-24 17:27:00,
2017-05-24 13:32:00,63.5,54.4,29.50,SSE,157,0.0,0.0,72,0.00,,,0.00,WUHU216WMR200,2017-05-24 17:32:00,
2017-05-24 13:37:00,63.5,54.4,29.50,SSE,157,0.0,0.0,72,0.00,,,0.00,WUHU216WMR200,2017-05-24 17:37:00,
2017-05-24 13:42:00,63.3,54.3,29.50,SSE,157,0.0,0.0,72,0.00,,,0.00,WUHU216WMR200,2017-05-24 17:42:00,
2017-05-24 13:47:00,63.1,54.4,29.50,SSE,157,0.0,0.0,73,0.00,,,0.00,WUHU216WMR200,2017-05-24 17:47:00,
2017-05-24 13:52:00,63.0,54.3,29.50,SSE,157,0.0,0.0,73,0.00,,,0.00,WUHU216WMR200,2017-05-24 17:52:00,
2017-05-24 13:57:00,62.6,54.3,29.50,SSE,157,0.0,0.0,74,0.00,,,0.00,WUHU216WMR200,2017-05-24 17:57:00,
2017-05-24 14:02:00,62.6,55.0,29.53,SSE,157,0.0,0.0,76,0.00,,,0.00,WUHU216WMR200,2017-05-24 18:02:00,
2017-05-24 14:07:00,62.6,55.0,29.53,SSE,157,0.0,0.0,76,0.00,,,0.00,WUHU216WMR200,2017-05-24 18:07:00,
2017-05-24 14:12:00,62.6,55.4,29.53,SSE,157,0.0,0.0,77,0.00,,,0.00,WUHU216WMR200,2017-05-24 18:12:00,
2017-05-24 14:17:00,62.6,55.4,29.50,SSE,157,0.0,0.0,77,0.04,,,0.04,WUHU216WMR200,2017-05-24 18:17:00,
2017-05-24 14:22:00,62.6,55.4,29.50,SSE,157,0.0,0.0,77,0.04,,,0.04,WUHU216WMR200,2017-05-24 18:22:00,
2017-05-24 14:27:00,62.4,55.2,29.50,SSE,157,0.0,0.0,77,0.04,,,0.04,WUHU216WMR200,2017-05-24 18:27:00,
2017-05-24 14:32:00,62.4,55.5,29.53,SSE,157,0.0,0.0,78,0.04,,,0.04,WUHU216WMR200,2017-05-24 18:32:00,
2017-05-24 14:37:00,62.2,55.0,29.53,SSE,157,0.0,0.0,77,0.04,,,0.04,WUHU216WMR200,2017-05-24 18:37:00,
2017-05-24 14:42:00,62.2,55.3,29.53,SSE,157,0.0,0.0,78,0.08,,,0.08,WUHU216WMR200,2017-05-24 18:42:00,
2017-05-24 14:47:00,62.2,55.3,29.50,SSE,157,0.0,0.0,78,0.08,,,0.08,WUHU216WMR200,2017-05-24 18:47:00,
2017-05-24 14:52:00,62.2,55.7,29.50,SSE,157,0.0,0.0,79,0.08,,,0.08,WUHU216WMR200,2017-05-24 18:52:00,
2017-05-24 14:57:00,61.9,55.0,29.50,SSE,157,0.0,0.0,78,0.08,,,0.08,WUHU216WMR200,2017-05-24 18:57:00,
2017-05-24 15:02:00,61.7,54.5,29.50,SSE,157,0.0,0.0,77,0.08,,,0.08,WUHU216WMR200,2017-05-24 19:02:00,
2017-05-24 15:07:00,61.5,54.3,29.50,SSE,157,0.0,0.0,77,0.04,,,0.12,WUHU216WMR200,2017-05-24 19:07:00,
2017-05-24 15:12:00,61.2,54.0,29.50,SSE,157,0.0,0.0,77,0.04,,,0.12,WUHU216WMR200,2017-05-24 19:12:00,
2017-05-24 15:17:00,60.8,53.3,29.50,SSE,157,0.0,0.0,76,0.04,,,0.12,WUHU216WMR200,2017-05-24 19:17:00,
2017-05-24 15:22:00,60.4,52.9,29.50,SSE,157,0.0,0.0,76,0.04,,,0.12,WUHU216WMR200,2017-05-24 19:22:00,
2017-05-24 15:27:00,60.4,52.9,29.50,SSE,157,0.0,0.0,76,0.04,,,0.12,WUHU216WMR200,2017-05-24 19:27:00,
2017-05-24 15:32:00,60.1,52.6,29.50,SSE,157,0.0,0.0,76,0.08,,,0.16,WUHU216WMR200,2017-05-24 19:32:00,
2017-05-24 15:37:00,60.1,52.6,29.50,SSE,157,0.0,0.0,76,0.08,,,0.16,WUHU216WMR200,2017-05-24 19:37:00,
2017-05-24 15:42:00,59.9,52.4,29.50,SSE,157,0.0,0.0,76,0.08,,,0.16,WUHU216WMR200,2017-05-24 19:42:00,
2017-05-24 15:47:00,59.7,52.6,29.53,SSE,157,0.0,0.0,77,0.08,,,0.16,WUHU216WMR200,2017-05-24 19:47:00,
2017-05-24 15:52:00,59.9,53.1,29.53,SSE,157,0.0,0.0,78,0.08,,,0.16,WUHU216WMR200,2017-05-24 19:52:00,
2017-05-24 15:57:00,59.9,52.8,29.53,SSE,157,0.0,0.0,77,0.08,,,0.16,WUHU216WMR200,2017-05-24 19:57:00,
2017-05-24 16:02:00,59.9,52.8,29.50,SSE,157,0.0,0.0,77,0.00,,,0.16,WUHU216WMR200,2017-05-24 20:02:00,
2017-05-24 16:07:00,59.5,52.4,29.50,SSE,157,0.0,0.0,77,0.04,,,0.20,WUHU216WMR200,2017-05-24 20:07:00,
2017-05-24 16:12:00,59.4,52.6,29.50,SSE,157,0.0,0.0,78,0.04,,,0.20,WUHU216WMR200,2017-05-24 20:12:00,
2017-05-24 16:17:00,59.4,52.6,29.50,SSE,157,0.0,0.0,78,0.04,,,0.20,WUHU216WMR200,2017-05-24 20:17:00,
2017-05-24 16:22:00,59.5,52.4,29.50,SSE,157,0.0,0.0,77,0.04,,,0.20,WUHU216WMR200,2017-05-24 20:22:00,
2017-05-24 16:27:00,59.7,52.6,29.50,SSE,157,0.0,0.0,77,0.04,,,0.20,WUHU216WMR200,2017-05-24 20:27:00,
2017-05-24 16:32:00,60.1,53.3,29.50,SSE,157,0.0,0.0,78,0.04,,,0.20,WUHU216WMR200,2017-05-24 20:32:00,
2017-05-24 16:37:00,60.6,54.1,29.50,SSE,157,0.0,0.0,79,0.04,,,0.20,WUHU216WMR200,2017-05-24 20:37:00,
2017-05-24 16:42:00,60.6,54.1,29.50,SSE,157,0.0,0.0,79,0.04,,,0.20,WUHU216WMR200,2017-05-24 20:42:00,
2017-05-24 16:47:00,60.8,54.6,29.50,SSE,157,0.0,0.0,80,0.04,,,0.20,WUHU216WMR200,2017-05-24 20:47:00,
2017-05-24 16:52:00,60.6,54.5,29.50,SSE,157,0.0,0.0,80,0.04,,,0.20,WUHU216WMR200,2017-05-24 20:52:00,
2017-05-24 16:57:00,60.8,54.3,29.50,SSE,157,0.0,0.0,79,0.04,,,0.20,WUHU216WMR200,2017-05-24 20:57:00,
2017-05-24 17:02:00,60.8,55.0,29.50,SSE,157,0.0,0.0,81,0.00,,,0.20,WUHU216WMR200,2017-05-24 21:02:00,
2017-05-24 17:07:00,60.6,54.8,29.50,SSE,157,0.0,0.0,81,0.00,,,0.20,WUHU216WMR200,2017-05-24 21:07:00,
2017-05-24 17:12:00,60.6,54.5,29.50,SSE,157,0.0,0.0,80,0.00,,,0.20,WUHU216WMR200,2017-05-24 21:12:00,